Wind_Speed
38 37 37 37 41 39 25 21 22 29 32 27 31 28 29 30 29 26 25 23 25 23 23 24 26 26 25 25 25 24 27 25 23 25 27 33 30 22 20 18 16 13 12 10 8 7 6 5 3
41 41 41 42 45 39 22 20 22 32 38 28 29 28 28 27 27 26 25 22 24 25 24 23 23 26 26 25 23 24 23 24 23 24 22 22 19 20 19 17 15 13 11 9 7 6 6 5 5
44 45 46 47 47 31 21 22 28 36 38 30 29 28 28 25 28 28 27 26 24 27 22 26 23 24 23 21 24 28 27 28 26 26 26 23 20 19 19 17 15 13 12 10 9 8 7 6 5
47 50 51 54 49 30 25 26 32 38 39 35 32 30 24 25 25 28 28 28 27 26 29 23 25 25 23 20 22 24 25 25 27 29 28 23 21 20 19 18 16 13 11 10 9 8 7 7 8
53 55 57 56 50 34 29 30 34 39 39 37 35 31 26 24 24 28 31 31 29 33 29 25 26 27 27 23 21 19 22 22 20 24 26 23 22 21 20 17 14 13 11 10 9 9 10 11 9
60 60 61 59 49 41 35 34 37 39 41 39 38 36 32 27 24 27 30 31 34 33 30 28 27 29 29 27 25 22 21 21 20 21 23 23 22 19 17 16 14 14 13 12 13 13 12 11 10
63 64 65 61 56 50 37 38 41 38 42 40 40 42 37 32 30 29 28 30 34 35 32 28 28 29 29 28 26 25 24 24 24 23 22 22 20 18 16 15 15 15 15 16 14 14 13 12 12
71 70 73 70 64 55 42 43 40 44 42 42 46 44 37 36 36 35 32 30 32 34 33 30 29 30 29 28 27 26 25 26 26 25 23 21 19 19 18 17 17 17 18 18 17 16 16 16 16
70 77 79 73 68 57 45 46 43 45 49 46 46 45 38 42 40 39 37 34 32 32 34 34 32 31 30 29 29 28 27 27 26 26 24 23 22 20 20 21 20 21 22 21 20 20 19 19 19
75 76 77 76 73 65 54 54 51 51 52 52 49 47 43 42 44 42 42 39 37 35 35 38 34 33 34 33 33 31 30 30 30 29 26 25 24 24 24 23 23 24 25 25 24 23 22 22 23
76 77 69 69 71 72 65 63 59 59 58 55 50 50 50 46 47 47 46 43 39 41 40 39 39 38 37 37 37 35 34 34 32 31 30 30 28 27 27 27 28 28 29 28 26 25 25 26 27
81 75 75 73 71 69 69 64 65 64 59 57 57 56 54 50 47 49 50 44 44 43 43 42 41 40 39 38 37 37 37 36 35 34 33 32 31 30 29 29 29 29 29 29 28 28 29 30 31
82 78 80 78 76 72 71 71 66 66 63 64 63 60 57 54 48 49 52 50 48 47 44 43 43 42 41 41 41 40 40 39 38 37 35 34 34 33 32 31 30 29 29 29 29 31 32 32 33
80 81 81 83 81 79 77 73 72 66 65 69 68 64 58 57 49 50 52 48 50 47 47 45 44 44 44 44 44 44 43 43 42 40 39 38 37 36 35 33 32 31 30 30 32 32 33 34 34
81 83 84 83 81 83 78 79 76 66 72 71 70 67 63 58 55 49 47 48 49 53 54 51 49 49 48 47 46 45 46 46 45 43 41 41 40 39 37 36 35 34 33 33 33 34 34 35 34
80 84 87 82 80 82 82 83 73 69 74 73 71 68 66 61 58 51 49 49 50 52 54 56 54 51 50 50 49 49 49 48 48 46 45 43 42 41 41 40 38 38 37 37 36 35 35 35 34
80 87 88 84 81 83 86 84 81 76 74 74 72 69 67 64 61 56 51 50 50 49 53 57 57 55 55 53 52 53 53 52 51 49 47 46 45 44 44 44 42 42 41 41 39 38 38 37 36
73 77 81 84 82 79 83 87 82 76 77 73 72 70 68 67 65 56 55 53 52 52 53 57 59 58 58 58 56 56 57 55 52 49 48 48 48 49 48 46 45 45 45 44 41 40 41 39 37
74 74 74 74 77 81 83 84 81 77 75 75 74 72 72 74 67 62 62 61 59 58 58 57 59 58 59 59 58 57 56 55 53 51 52 52 52 51 50 48 48 48 48 45 42 42 42 40 39
74 75 74 70 71 78 83 87 79 79 77 75 76 75 72 72 74 68 65 66 64 62 60 60 60 61 59 59 59 60 57 56 57 56 56 55 53 52 52 53 52 51 49 47 45 44 45 42 42
71 74 73 72 70 74 78 86 85 82 77 71 74 74 75 72 71 71 68 68 69 67 64 61 60 59 59 58 60 60 59 60 60 59 54 52 54 55 55 56 54 53 51 50 48 47 47 46 45
68 64 66 68 69 76 74 85 83 82 80 73 69 71 73 75 74 69 73 69 69 70 69 66 64 62 61 61 60 60 58 58 57 55 56 57 59 58 59 59 58 57 54 51 50 50 49 47 45
57 60 65 67 69 63 73 78 81 81 82 74 70 67 70 72 73 72 70 70 72 71 75 71 68 64 62 62 61 60 60 59 57 58 59 58 58 59 58 58 57 56 54 53 53 53 50 47 47
30 47 61 68 70 74 71 53 74 72 71 72 70 67 65 67 70 71 73 72 69 70 74 76 73 69 65 64 63 61 60 60 60 59 58 59 59 59 59 59 57 57 57 56 56 52 50 49 49
25 32 47 63 75 79 69 67 68 67 61 59 61 63 64 63 67 68 68 70 72 70 72 72 71 71 69 66 64 62 61 61 60 58 60 61 61 60 60 59 60 59 59 58 54 51 51 51 51
23 30 36 54 66 68 66 73 74 61 57 58 56 56 57 61 65 67 70 69 72 74 74 72 72 67 72 70 68 65 65 64 60 60 62 62 62 61 61 61 60 60 59 56 54 53 54 54 53
25 31 29 39 49 34 37 42 59 60 56 54 55 51 53 57 59 62 67 71 68 69 72 73 70 68 69 62 71 68 69 66 64 63 64 64 63 63 63 62 62 61 60 58 56 56 56 56 56
10 20 21 34 33 41 19 13 14 25 32 31 37 41 40 43 49 56 61 65 68 69 69 71 72 70 68 72 64 67 69 70 69 68 67 66 66 66 65 64 63 62 61 60 59 58 58 58 58
14 6 14 38 31 37 43 5 12 23 30 27 30 34 36 41 46 49 54 58 63 65 68 69 71 71 71 67 69 70 63 64 69 73 73 70 69 69 67 66 66 65 64 63 63 61 61 61 61
9 6 11 30 41 24 32 34 22 14 22 26 30 33 29 32 40 43 46 51 54 59 64 68 69 68 70 69 65 67 72 68 64 73 76 73 72 71 69 69 68 69 68 67 66 66 66 65 64
Wind_Direction
255 256 257 257 259 260 264 271 262 263 262 252 257 257 252 248 250 244 234 237 232 228 228 226 227 233 238 239 235 230 225 233 226 225 223 213 217 212 217 219 225 225 226 224 219 216 213 223 238
257 255 254 253 257 261 273 264 260 258 260 254 256 256 254 251 249 246 237 227 234 222 220 223 226 228 231 230 234 226 226 220 216 213 210 210 213 219 219 222 224 224 223 218 216 219 220 226 246
256 255 254 252 253 265 273 258 253 259 262 255 252 253 249 253 247 246 237 227 223 221 212 220 220 224 231 232 235 234 224 227 225 220 213 215 215 221 225 225 223 219 217 213 213 213 220 220 232
254 254 253 255 259 259 269 255 252 256 259 256 249 250 246 249 244 242 234 227 213 217 220 213 216 221 225 220 224 231 230 216 225 223 215 217 220 222 224 221 219 217 218 219 218 218 220 235 249
253 251 252 253 257 256 259 252 249 254 257 260 251 248 242 247 245 240 231 229 221 227 221 215 218 220 221 222 219 223 226 215 216 207 210 215 222 221 219 219 219 218 220 223 229 234 243 244 245
251 251 251 254 257 252 252 250 250 252 257 257 254 247 241 240 239 243 238 228 216 228 224 220 218 218 220 221 221 222 219 219 216 214 214 217 218 216 216 218 218 220 222 230 236 239 240 241 245
251 250 251 251 250 246 250 251 251 252 253 256 254 246 240 241 237 236 236 230 226 231 229 219 212 216 221 221 222 224 225 222 223 223 219 217 216 217 216 215 221 227 233 236 232 234 240 250 254
251 250 252 252 251 247 247 248 252 253 254 250 252 250 243 242 240 237 235 228 227 232 229 217 210 210 213 215 216 216 218 219 219 221 219 217 215 215 217 222 228 233 237 235 235 238 244 250 255
249 249 250 250 251 255 245 246 245 248 251 250 250 250 241 237 241 239 237 234 227 228 230 223 216 213 211 215 219 221 221 220 220 219 217 216 217 220 224 229 234 240 240 238 239 241 246 252 256
249 250 252 251 251 250 245 243 241 242 245 245 246 246 244 237 239 241 238 234 231 230 229 232 224 218 216 217 219 223 223 221 219 219 218 219 222 226 230 235 239 242 242 241 243 246 250 252 258
249 251 255 253 251 248 244 241 241 245 242 246 247 244 242 235 233 237 238 235 231 232 233 232 229 226 222 221 222 221 219 220 221 222 221 221 223 229 235 240 241 241 242 244 247 249 252 255 258
247 246 247 249 249 246 244 241 239 240 239 237 241 243 241 238 235 235 238 235 234 232 233 235 234 232 230 227 225 222 222 222 224 226 227 228 228 231 237 240 243 244 246 247 250 253 254 256 260
246 244 245 244 245 245 245 241 236 235 236 235 236 238 241 241 234 233 237 235 234 234 234 236 238 235 233 232 229 224 222 224 226 228 230 232 233 235 238 243 245 248 251 251 253 254 256 259 263
246 246 244 244 243 242 243 242 238 233 234 234 236 238 237 242 238 234 235 236 237 236 236 236 238 239 236 234 231 227 226 225 226 229 230 232 234 238 239 243 248 249 252 254 256 258 260 262 264
244 244 244 241 242 243 242 242 243 240 236 233 236 237 239 238 239 238 238 238 236 235 235 233 234 236 237 237 235 234 231 229 229 231 233 234 235 238 242 246 249 253 254 256 257 259 261 261 262
246 243 240 241 242 243 244 244 242 241 237 236 234 237 240 241 240 236 234 236 238 238 238 239 236 236 238 239 238 237 236 234 233 232 234 236 237 240 243 246 250 253 255 256 257 257 258 260 260
246 245 242 239 240 242 241 243 240 238 239 236 235 236 239 242 242 239 235 236 237 238 238 239 240 235 236 238 238 238 237 237 236 235 236 238 240 241 243 245 248 252 253 256 256 255 255 257 259
250 252 248 244 240 243 244 243 243 240 240 238 236 236 237 240 241 238 236 233 235 236 236 238 240 240 236 236 237 239 240 238 239 240 240 241 242 242 243 244 247 251 254 256 257 256 256 258 260
245 245 245 243 243 244 243 245 244 244 240 239 237 235 236 237 237 235 233 231 229 232 233 234 238 240 240 239 239 239 242 243 241 241 241 241 242 243 246 248 249 251 255 259 261 260 260 262 263
239 241 243 242 241 244 244 243 243 245 241 238 238 236 234 235 238 234 234 234 232 232 233 233 235 238 239 241 242 241 240 240 241 240 240 242 245 247 249 249 249 251 253 256 259 259 259 260 261
240 240 240 244 243 242 244 243 242 243 244 241 239 237 235 234 237 238 234 235 235 232 233 235 235 237 239 240 240 242 242 241 242 243 245 247 247 246 246 246 247 248 251 254 257 258 257 258 260
242 238 239 238 239 242 243 247 243 241 243 242 241 239 237 235 236 236 239 235 236 237 235 233 233 235 236 238 239 240 241 242 242 242 240 240 242 243 245 246 247 248 251 254 256 257 257 258 260
245 237 235 235 236 237 242 245 243 242 241 240 241 243 241 239 238 238 238 242 238 235 238 236 233 231 234 237 239 240 240 240 240 240 242 243 244 246 247 248 248 250 251 252 254 255 257 259 260
255 241 233 231 233 237 237 249 244 244 244 245 242 242 245 245 243 240 239 239 240 244 243 240 237 233 232 235 237 237 239 240 241 241 241 242 244 245 246 248 248 249 250 252 253 256 258 258 258
249 244 236 232 229 234 233 241 244 244 246 247 245 242 240 242 242 242 242 242 241 239 241 246 242 237 235 234 235 236 237 239 239 240 241 242 242 244 246 247 248 249 250 253 255 256 255 256 258
259 250 242 235 233 236 235 239 243 246 247 246 245 243 240 240 240 240 240 240 239 238 240 241 247 242 240 237 236 235 235 236 238 239 241 242 243 243 245 246 248 250 252 253 253 253 254 256 257
275 249 243 230 230 230 252 257 251 244 246 248 247 247 243 240 239 238 238 239 241 241 241 243 243 246 245 244 237 238 237 236 236 238 240 242 244 245 246 248 249 250 251 252 252 252 254 256 258
320 248 224 209 219 210 218 266 257 233 239 239 241 243 245 243 238 237 237 237 238 240 240 240 241 242 242 247 243 242 241 240 238 238 239 241 243 244 246 248 249 251 252 253 253 255 256 257 259
282 224 258 212 204 208 220 261 247 244 247 244 244 241 236 245 245 242 239 237 237 238 239 239 239 240 241 241 247 245 239 243 243 239 240 241 243 246 247 248 249 252 253 254 256 256 257 258 259
236 215 228 211 212 221 221 229 244 238 228 233 233 231 232 231 229 232 237 238 239 239 238 237 237 238 239 240 240 243 250 243 240 242 240 240 241 243 246 249 251 253 254 255 256 257 258 260 262
Height
5763 5762 5762 5761 5763 5760 5771 5775 5775 5773 5770 5775 5774 5776 5778 5780 5784 5788 5787 5788 5790 5792 5793 5796 5800 5803 5805 5807 5810 5813 5816 5818 5819 5822 5825 5828 5829 5832 5835 5836 5839 5840 5842 5843 5844 5846 5847 5849 5850
5756 5755 5754 5751 5752 5754 5769 5770 5770 5765 5763 5770 5769 5772 5773 5777 5779 5782 5783 5783 5786 5788 5789 5791 5795 5798 5800 5802 5806 5809 5812 5815 5817 5820 5822 5825 5827 5830 5831 5833 5836 5837 5839 5840 5842 5844 5845 5847 5847
5747 5746 5746 5741 5741 5754 5763 5764 5763 5759 5760 5765 5765 5765 5767 5772 5774 5777 5778 5779 5782 5784 5784 5786 5790 5794 5796 5798 5801 5803 5807 5810 5814 5817 5819 5822 5824 5826 5828 5830 5832 5834 5836 5838 5840 5842 5844 5844 5846
5735 5735 5734 5731 5736 5752 5756 5756 5756 5753 5753 5759 5760 5760 5764 5765 5768 5772 5773 5774 5778 5780 5780 5782 5786 5789 5792 5794 5797 5800 5803 5804 5808 5812 5815 5817 5820 5823 5825 5827 5829 5831 5833 5835 5838 5840 5841 5843 5845
5723 5722 5721 5722 5731 5745 5747 5747 5747 5746 5747 5752 5754 5758 5759 5760 5763 5766 5768 5770 5773 5777 5775 5776 5781 5784 5788 5790 5794 5796 5799 5801 5804 5806 5810 5813 5817 5819 5822 5824 5827 5829 5831 5833 5835 5837 5839 5840 5842
5708 5711 5709 5712 5726 5734 5738 5739 5737 5739 5740 5744 5748 5751 5754 5754 5757 5760 5762 5765 5768 5771 5772 5774 5776 5780 5783 5786 5789 5793 5795 5799 5801 5804 5806 5810 5813 5816 5819 5821 5824 5826 5828 5830 5832 5834 5835 5837 5839
5697 5696 5698 5703 5711 5719 5733 5732 5729 5733 5731 5737 5740 5739 5747 5749 5750 5752 5756 5760 5763 5765 5768 5769 5771 5774 5778 5782 5785 5788 5791 5794 5798 5800 5803 5806 5809 5812 5815 5817 5820 5823 5825 5827 5828 5830 5832 5834 5835
5684 5678 5684 5690 5699 5709 5723 5721 5725 5721 5726 5726 5726 5733 5742 5743 5742 5744 5749 5754 5757 5760 5764 5763 5766 5769 5773 5777 5780 5783 5786 5790 5793 5796 5799 5802 5804 5807 5810 5813 5816 5818 5820 5822 5824 5827 5829 5830 5832
5666 5660 5669 5680 5688 5703 5712 5710 5714 5714 5712 5716 5718 5724 5732 5733 5734 5738 5742 5746 5750 5754 5758 5760 5760 5763 5767 5771 5775 5779 5782 5786 5789 5791 5793 5796 5799 5802 5805 5808 5810 5813 5815 5817 5820 5821 5823 5825 5827
5645 5647 5659 5671 5679 5684 5696 5695 5700 5701 5701 5704 5708 5713 5720 5725 5726 5729 5733 5738 5743 5748 5751 5755 5757 5758 5760 5763 5768 5773 5776 5779 5782 5786 5788 5791 5794 5797 5800 5802 5805 5808 5810 5811 5814 5816 5818 5819 5821
5631 5633 5651 5655 5660 5665 5673 5678 5685 5688 5691 5697 5702 5703 5706 5712 5716 5719 5724 5729 5735 5736 5742 5747 5749 5752 5755 5758 5761 5765 5769 5772 5776 5779 5782 5785 5788 5791 5794 5796 5799 5801 5804 5806 5808 5810 5812 5814 5815
5609 5625 5628 5636 5642 5648 5653 5664 5668 5672 5682 5685 5685 5689 5693 5700 5708 5712 5715 5722 5725 5728 5732 5738 5744 5747 5750 5752 5755 5758 5762 5766 5769 5773 5777 5780 5782 5785 5788 5791 5794 5796 5798 5800 5802 5804 5806 5808 5810
5592 5610 5608 5617 5623 5630 5634 5642 5650 5660 5667 5669 5671 5675 5682 5689 5697 5702 5705 5711 5715 5721 5725 5729 5735 5739 5743 5745 5748 5751 5754 5758 5762 5766 5770 5773 5776 5779 5782 5785 5787 5789 5791 5793 5795 5797 5799 5801 5803
5584 5584 5591 5595 5604 5609 5616 5625 5630 5650 5653 5654 5658 5664 5670 5678 5687 5691 5695 5703 5709 5712 5717 5720 5724 5729 5733 5737 5741 5744 5746 5749 5754 5759 5762 5765 5769 5773 5775 5777 5780 5782 5784 5787 5788 5791 5793 5795 5797
5559 5560 5566 5576 5589 5593 5602 5603 5612 5639 5635 5638 5646 5655 5657 5665 5672 5682 5690 5693 5697 5700 5703 5708 5711 5717 5722 5727 5732 5736 5739 5742 5745 5749 5753 5757 5761 5765 5768 5770 5773 5776 5778 5780 5782 5784 5786 5787 5789
5535 5534 5543 5567 5574 5579 5585 5584 5609 5617 5618 5625 5634 5641 5646 5653 5661 5670 5677 5682 5685 5691 5696 5697 5702 5707 5712 5717 5722 5727 5730 5732 5735 5739 5744 5749 5753 5757 5759 5762 5765 5768 5771 5772 5774 5776 5778 5779 5781
5509 5512 5528 5548 5554 5556 5561 5570 5584 5596 5599 5609 5620 5629 5634 5641 5648 5657 5664 5670 5675 5679 5684 5687 5691 5696 5700 5705 5709 5714 5718 5723 5727 5731 5736 5741 5744 5747 5750 5753 5757 5760 5762 5764 5766 5768 5770 5771 5772
5501 5501 5514 5522 5537 5541 5546 5548 5564 5581 5584 5595 5606 5615 5621 5628 5636 5646 5650 5656 5661 5665 5670 5674 5678 5683 5687 5691 5697 5701 5707 5712 5718 5724 5728 5730 5733 5736 5739 5743 5748 5752 5754 5755 5758 5760 5761 5762 5764
5475 5479 5489 5503 5517 5522 5527 5533 5548 5554 5566 5577 5587 5596 5605 5613 5623 5628 5632 5637 5643 5649 5654 5660 5665 5671 5675 5681 5686 5691 5698 5705 5708 5712 5716 5718 5720 5724 5730 5735 5739 5741 5743 5746 5749 5751 5752 5754 5755
5454 5461 5470 5489 5499 5503 5512 5514 5526 5528 5545 5557 5567 5579 5589 5598 5604 5610 5617 5623 5630 5635 5641 5646 5652 5657 5664 5669 5674 5678 5684 5690 5695 5698 5702 5706 5711 5717 5721 5724 5727 5729 5732 5736 5739 5740 5741 5744 5745
5437 5445 5460 5469 5483 5486 5489 5489 5502 5512 5524 5541 5549 5563 5573 5583 5591 5597 5600 5609 5615 5621 5628 5634 5639 5644 5650 5656 5660 5666 5671 5676 5681 5688 5695 5700 5702 5703 5706 5709 5713 5717 5721 5724 5727 5729 5730 5732 5734
5415 5438 5446 5453 5461 5461 5475 5464 5481 5496 5508 5519 5535 5546 5558 5566 5573 5581 5586 5593 5600 5608 5611 5617 5622 5628 5634 5638 5646 5652 5660 5665 5671 5675 5677 5680 5684 5688 5692 5697 5701 5705 5709 5713 5715 5717 5719 5721 5723
5408 5422 5425 5437 5442 5446 5450 5449 5465 5480 5488 5505 5525 5532 5542 5552 5561 5569 5574 5577 5583 5588 5592 5599 5606 5613 5621 5626 5632 5638 5644 5650 5656 5660 5664 5668 5673 5677 5682 5686 5690 5694 5698 5700 5702 5705 5707 5710 5711
5402 5399 5410 5417 5423 5419 5436 5441 5449 5462 5483 5497 5511 5522 5531 5539 5544 5549 5556 5562 5566 5572 5576 5583 5592 5601 5606 5612 5618 5625 5631 5637 5642 5647 5652 5656 5660 5664 5668 5673 5678 5681 5684 5686 5689 5694 5697 5698 5699
5390 5391 5396 5399 5399 5402 5434 5429 5434 5455 5471 5489 5498 5506 5512 5518 5524 5531 5539 5544 5550 5554 5558 5566 5575 5586 5593 5599 5605 5611 5617 5622 5628 5633 5637 5641 5646 5651 5656 5660 5664 5667 5669 5673 5678 5682 5684 5685 5687
5382 5383 5387 5389 5394 5407 5424 5411 5428 5456 5461 5466 5476 5486 5496 5500 5506 5511 5516 5521 5527 5534 5541 5550 5560 5569 5579 5585 5591 5596 5601 5607 5613 5619 5623 5627 5632 5637 5640 5644 5649 5653 5657 5661 5664 5667 5669 5672 5674
5372 5372 5382 5384 5394 5409 5414 5421 5428 5440 5448 5455 5464 5471 5474 5479 5486 5491 5497 5504 5512 5520 5531 5537 5546 5554 5562 5570 5576 5582 5588 5593 5599 5604 5608 5612 5617 5622 5626 5630 5634 5639 5643 5647 5650 5652 5655 5658 5660
5367 5369 5373 5379 5391 5402 5407 5413 5420 5426 5435 5440 5445 5451 5456 5462 5469 5474 5480 5487 5495 5503 5513 5521 5529 5538 5546 5553 5560 5567 5574 5579 5584 5589 5593 5598 5602 5606 5610 5615 5620 5624 5628 5632 5634 5638 5641 5643 5645
5367 5367 5372 5377 5382 5393 5402 5410 5414 5420 5425 5431 5437 5441 5445 5450 5456 5462 5468 5474 5481 5488 5496 5503 5512 5520 5529 5537 5545 5551 5558 5565 5570 5573 5577 5583 5587 5592 5597 5601 5605 5610 5613 5617 5620 5623 5625 5627 5630
5366 5369 5373 5377 5384 5390 5398 5408 5412 5415 5419 5423 5429 5434 5437 5441 5446 5451 5457 5462 5468 5474 5480 5487 5495 5503 5511 5519 5527 5534 5541 5546 5551 5556 5562 5567 5572 5577 5582 5586 5590 5594 5597 5601 5604 5606 5609 5612 5614